Miscellaneous Local Product
Issued by NWS North Platte, NE

Home | Current Version | Previous Version | Text Only | Print | Product List | Glossary On
Versions: 1 2 3 4 5 6 7 8 9 10 11 12 13 14 15 16 17 18 19 20 21 22 23 24 25 26 27 28 29 30 31 32 33 34 35 36 37 38 39 40 41 42 43 44 45 46 47 48 49 50
539
AXUS43 KLBF 181110
MISLBF


WESTERN AND NORTH CENTRAL NEBRASKA HOURLY WEATHER ROUNDUP
NATIONAL WEATHER SERVICE NORTH PLATTE NE
500 AM CST WED JAN 18 2017

NOTE: "FAIR" INDICATES FEW OR NO CLOUDS BELOW 12,000 FEET WITH NO
SIGNIFICANT WEATHER AND/OR OBSTRUCTIONS TO VISIBILITY.

NOTE: STATIONS NOT REPORTING VARIABLES SUCH AS SKY/WEATHER OR
PRESSURE ARE PROVIDED BY RAWS AND APRS NETWORKS AND ARE NOT UNDER
NATIONAL WEATHER SERVICE QUALITY CONTROL.

...OBSERVATIONS IN AND NEAR THE EASTERN PANHANDLE OF NEBRASKA...

CITY           SKY/WX    TMP DP  RH WIND       PRES   REMARKS
PINE RIDGE     CLOUDY    32  16  51 SW8       29.90S WCI  25
CHADRON        CLOUDY    23  14  68 SW8       29.92F WCI  14
ALLIANCE       CLOUDY    17  12  80 W6        29.92F WCI   9
SIDNEY         CLOUDY    20  16  84 W8        29.94S WCI  10
CRESCENT LAKE    N/A     24  14  66 W3          N/A
$$

...OBSERVATIONS IN NORTHERN NEBRASKA AND FAR SOUTHERN SOUTH DAKOTA...

CITY           SKY/WX    TMP DP  RH WIND       PRES   REMARKS
WINNER         FAIR      30  19  63 CALM      29.87F
VALENTINE      CLOUDY    21  17  84 W7        29.90F WCI  12
THEDFORD       PTCLDY    28  24  84 SW3       29.91F
AINSWORTH      CLOUDY    27  25  91 SW8       29.89F WCI  19
O`NEILL        CLOUDY    33  30  90 W7        29.90F WCI  27
ORD            CLOUDY    30  25  81 SW9       29.95F WCI  22
BROKEN BOW     CLOUDY    27  26  96 CALM      29.94F
VALENTINE NWR    N/A     29  20  70 SW9         N/A  WCI  21
BUTTE            N/A     28  24  84 SW8         N/A  WCI  20
HALSEY           N/A     29  25  85 SW5G13      N/A  WCI  24
SARGENT          N/A     29  22  74 CALM        N/A
CHAMBERS         N/A     30  27  88 W3          N/A
EWING            N/A     31  28  88 SW6         N/A  WCI  25
$$

...OBSERVATIONS IN SOUTHWEST NEBRASKA AND FAR NORTHEAST COLORADO...

CITY           SKY/WX    TMP DP  RH WIND       PRES   REMARKS
WRAY           FAIR      21  18  86 W5        29.96F WCI  15
HOLYOKE        FAIR      16  12  86 W10       29.94F WCI   3
IMPERIAL       CLOUDY    25  21  85 S5        29.95F WCI  19
OGALLALA       CLOUDY    18  16  92 W5        29.96F WCI  11
NORTH PLATTE   CLOUDY    23  20  88 W6        29.96F WCI  16
MCCOOK         CLOUDY    25  25 100 SW6       29.98F WCI  18
LEXINGTON      CLOUDY    32  28  86 SW5       29.98F WCI  27
STAPLETON        N/A     26  24  91 CALM        N/A
GOTHENBURG       N/A     34  28  79 SW3         N/A
CALLAWAY         N/A     32  29  88 W13         N/A  WCI  22
$$

...OBSERVATIONS IN CENTRAL LINCOLN COUNTY AREA...

CITY           SKY/WX    TMP DP  RH WIND       PRES   REMARKS
N.P. AIRPORT   CLOUDY    23  20  88 W6        29.96F WCI  16
N.P. DOWNTOWN    N/A     26  24  92 CALM        N/A
N.P. SOUTHEAST   N/A     27  24  88 CALM        N/A
N.P. HILLCREST   N/A     28  26  92 W3          N/A
$$

...SOME OBSERVATIONS FROM AROUND THE REGION...

CITY           SKY/WX    TMP DP  RH WIND       PRES   REMARKS
LARAMIE        CLOUDY     2  -2  83 CALM      30.02F
CHEYENNE       CLOUDY    29  11  47 W14       29.94F WCI  18
DENVER         CLOUDY    26  14  60 SW8       29.94F WCI  18
AKRON          CLOUDY    23  15  71 W12       29.93F WCI  12
SCOTTSBLUFF    CLOUDY    19  13  77 NW7       29.95F WCI  10
RAPID CITY     CLOUDY    25  17  72 CALM      29.83F
BISMARCK       CLOUDY    17  12  80 CALM      29.75F
PIERRE         CLOUDY    21  14  74 SW9       29.84F WCI  11
SIOUX FALLS    CLOUDY    27  24  89 S5        29.92F WCI  22
OMAHA          CLOUDY    25  21  85 SE9       30.06F WCI  15
GRAND ISLAND   CLOUDY    33  29  85 SW12      30.01S WCI  24
KANSAS CITY    CLOUDY    28  26  92 S8        30.14R FOG     WCI  20
WICHITA        CLOUDY    33  30  88 E3        30.10F
OKLAHOMA CITY  PTCLDY    40  37  89 CALM      30.11F
DALLAS         CLOUDY    48  46  93 N9        30.11R
AMARILLO       FOG       39  39 100 SW15      30.06F VSB 1/2 WCI  31
DODGE CITY     PTCLDY    39  33  79 SW14      30.02F WCI  31
HAYS           PTCLDY    31  28  89 S3        30.05F
GOODLAND       CLOUDY    27  25  92 W6        29.95F WCI  20
$$




USA.gov is the U.S. government's official web portal to all federal, state and local government web resources and services.